Main page
METAR-TAF:

METAR-TAF

Airports :

Defence School of Transport

Leconfield, England

latitude: 53-52-37N, longitude: 0-26-15W, elevation: 7 m

Current weather observation

The report was made 52 minutes ago, at 22:50 UTC
Wind 1 kt from the East/Northeast
Temperature 4°C
Humidity 100%
Pressure 1009 hPa
Visibility: 5000 m
mist

METAR: EGXV 272250Z AUTO 07001KT 5000 BR OVC018/// 04/04 Q1009

Time: 23:42 (23:42 UTC)


TAF: missing

Weather observations and forecasts of more than 4000 airports (METAR and TAF reports).

The available stations are represented by yellow and red dots on the map.

Hover mouse over dot to see the name of the station.

Then click to see weather observations and forecasts.

To change the map : click on the green buttons with a black cross to zoom in, on the green button with a dash to zoom out, or on the green arrows for adjacent maps.


METAR-TAF: